SCP
0 0 0 0 0 0 0 0 0 0 0 0 0 0 0 0 0 0 0 0 0 0 0 0 0 0 0 0 0 0 0 0 0 0 0 0 0 0 0 0 0 0 0 0 0
0 0 0 0 0 0 0 0 0 0 0 0 0 0 0 0 0 0 0 0 0 0 0 0 0 0 0 0 0 0 0 0 0 0 0 0 0 0 0 0 0 0 0 0 0
0 0 0 0 0 0 0 0 0 0 0 0 0 0 0 0 0 0 0 0 0 0 0 0 0 0 0 0 0 0 0 0 0 0 0 0 0 0 0 0 0 0 0 0 0
0 0 0 0 0 0 0 0 0 0 0 0 0 0 0 0 0 0 0 0 0 0 0 0 0 0 0 0 0 0 0 0 0 0 0 0 0 0 0 0 0 0 0 0 0
0 0 0 0 0 0 0 0 0 0 0 0 0 0 0 0 0 0 0 0 0 0 0 0 0 0 0 0 0 0 0 0 0 0 0 0 0 0 0 0 0 0 0 0 0
0 0 0 0 0 0 0 0 0 0 0 0 0 0 0 0 0 0 0 0 0 0 0 0 0 0 0 0 0 0 0 0 0 0 0 0 0 0 0 0 0 0 0 0 0
0 0 0 0 0 0 0 0 0 0 0 0 0 0 0 0 0 0 0 0 0 0 0 0 0 0 0 0 0 0 0 0 0 0 0 0 0 0 0 0 0 0 0 0 0
0 0 0 0 0 0 0 0 0 0 0 0 0 0 0 0 0 0 0 0 0 0 0 0 0 0 0 0 0 0 0 0 0 0 0 0 0 0 0 0 0 0 0 0 0
0 0 0 0 0 0 0 0 0 0 0 0 0 0 0 0 0 0 0 0 0 0 0 0 0 0 0 0 0 0 0 0 0 0 0 0 0 0 0 0 0 0 0 0 0
0 0 0 0 0 0 0 0 0 1 1 1 0 0 0 0 0 0 0 0 0 0 0 0 0 0 0 0 0 0 0 0 0 0 0 0 0 0 0 0 0 0 0 0 0
0 0 0 0 0 0 1 0 0 1 0 0 0 0 0 0 0 0 0 0 0 0 0 0 0 0 0 0 0 0 0 0 0 0 0 0 0 0 0 0 0 0 0 0 0
0 0 0 0 0 0 0 0 0 0 0 0 0 0 0 0 0 0 0 0 0 0 0 0 0 0 0 0 0 0 0 0 0 0 0 0 0 0 0 0 0 0 0 0 0
0 0 0 0 0 0 0 0 0 0 0 0 0 0 0 0 0 0 0 0 0 0 0 0 0 0 0 0 0 0 0 0 0 0 0 0 -0 -0 0 0 0 0 0 0 0
0 0 0 0 0 0 0 0 0 0 0 0 0 0 0 0 0 0 0 0 0 0 0 0 0 0 0 0 0 0 0 0 0 0 0 0 -0 -0 0 0 0 0 0 0 0
0 0 0 0 0 0 0 0 0 0 0 0 0 0 0 0 0 0 0 0 0 0 0 0 0 0 0 0 0 0 0 0 0 0 0 0 0 -0 -0 0 0 0 0 0 0
0 0 0 0 0 0 0 0 0 0 0 0 0 0 0 0 0 0 0 0 0 0 0 0 0 0 0 0 0 0 0 0 0 0 0 0 0 -0 0 -0 -0 0 0 0 0
0 0 0 0 0 0 0 0 0 0 0 0 0 0 0 0 0 0 0 0 0 0 0 0 0 0 0 0 0 0 0 0 0 0 0 0 0 0 0 0 -0 0 0 0 0
0 0 0 0 0 0 0 0 0 0 0 0 0 0 0 0 0 0 0 0 0 0 0 0 0 0 0 0 0 0 0 0 0 0 0 0 0 0 0 0 0 -0 0 0 0
0 0 0 0 0 0 0 0 0 0 0 0 0 0 0 0 0 0 0 0 0 0 0 0 0 0 0 0 0 0 0 0 0 0 0 0 0 0 0 0 0 0 0 0 0
0 0 0 0 0 0 0 0 0 0 0 0 0 0 0 0 0 0 0 0 0 0 0 0 0 0 0 0 0 0 0 0 0 0 0 0 0 0 0 0 0 0 0 0 0
0 0 -0 0 0 0 0 0 0 0 0 0 0 0 0 0 0 0 0 0 0 0 0 0 0 0 0 0 0 0 0 0 0 0 0 0 0 0 0 0 0 0 0 0 0
0 0 0 0 0 0 0 0 0 0 0 0 0 0 0 0 0 0 0 0 0 0 0 0 0 0 0 0 0 0 0 0 0 0 0 0 0 0 0 0 0 0 0 -0 -0
0 0 0 0 0 0 0 0 0 0 0 0 0 0 0 0 0 0 0 0 0 0 0 0 0 0 0 0 0 0 0 0 0 0 0 0 0 0 0 0 0 0 0 -0 -0
0 0 0 0 0 0 0 0 0 0 0 0 0 0 0 0 0 0 0 0 0 0 0 0 0 0 0 0 0 0 0 0 0 0 0 0 0 -0 0 0 -0 -0 -0 -0 -0
0 0 0 0 0 0 0 0 0 0 0 0 0 0 0 0 0 0 0 0 0 0 0 0 0 0 0 0 0 0 0 0 0 0 0 0 0 0 0 0 -0 -0 -0 -0 -0
0 0 0 0 0 0 0 0 0 0 0 0 0 0 0 0 0 0 0 0 0 0 0 0 0 0 0 0 0 0 0 0 0 0 0 0 0 -0 -0 -0 -0 0 0 -0 0
-0 -0 0 0 0 0 0 0 0 0 0 0 0 0 0 0 0 0 0 0 0 0 0 0 0 0 0 0 0 0 0 0 0 0 0 0 0 0 0 0 0 0 -0 -0 0
Wind_Speed_500mb
73 71 64 57 53 52 59 61 53 52 44 41 38 35 33 33 37 43 48 44 48 38 18 24 25 19 14 5 2 6 8 6 9 11 6 9 11 10 9 8 15 16 9 5 32
74 75 73 66 58 54 56 63 58 52 51 42 39 36 33 31 34 46 46 43 42 45 40 28 22 21 9 4 3 4 7 21 17 16 7 1 8 21 13 11 15 20 24 15 26
67 76 78 73 67 58 56 62 64 56 56 47 41 38 33 29 22 44 45 50 47 39 40 33 22 21 14 9 6 8 7 7 14 25 17 10 4 7 15 6 23 21 27 24 29
76 65 76 79 75 68 58 59 67 61 54 52 44 40 37 29 13 7 28 46 46 43 37 33 28 21 12 11 11 5 2 3 7 6 15 16 14 7 17 12 9 17 23 30 36
73 67 68 84 79 78 66 59 67 66 55 55 50 46 39 37 32 10 7 38 53 47 45 40 37 22 14 16 15 9 1 3 7 9 12 7 22 16 20 19 17 20 22 25 40
73 66 71 76 95 82 73 63 65 72 59 57 53 51 52 31 37 36 24 24 55 51 47 46 25 22 14 13 16 15 7 7 10 11 12 6 12 12 36 44 44 41 32 28 34
74 72 70 63 63 89 77 67 63 72 67 59 56 55 54 52 24 49 25 26 47 45 47 46 25 27 15 8 12 9 3 3 12 11 11 2 11 18 51 35 37 43 37 35 36
81 74 68 70 65 101 79 70 63 69 72 61 57 58 29 57 45 26 34 35 41 40 37 41 41 26 9 22 8 8 3 5 2 17 11 18 22 20 34 42 53 51 52 52 45
84 77 76 63 61 77 80 72 65 67 72 59 56 56 23 32 55 38 33 40 41 38 31 34 39 17 18 10 5 4 6 16 8 27 9 16 6 16 19 24 46 55 55 55 54
78 88 79 72 55 64 78 76 67 63 64 51 53 35 30 41 50 46 37 38 37 36 33 23 12 8 6 12 13 11 12 9 10 6 9 9 12 24 50 37 41 49 56 53 60
78 81 85 87 74 53 94 82 62 39 75 76 50 38 41 39 49 49 47 46 43 37 14 15 8 28 18 17 7 9 8 9 4 11 7 13 19 26 51 38 46 54 58 52 67
84 79 81 86 89 82 81 96 98 84 56 65 34 72 21 54 31 51 56 35 36 16 14 9 25 11 13 11 10 5 6 7 7 5 1 11 27 18 45 38 52 61 61 68 73
75 76 77 78 74 74 111 113 108 61 24 37 53 63 50 59 39 61 63 36 13 18 25 17 5 22 12 9 11 7 10 6 1 12 5 11 34 18 23 59 54 69 76 78 79
75 78 78 83 73 82 101 104 99 70 18 21 34 31 50 41 16 68 70 40 12 26 15 15 10 16 8 13 13 17 14 11 8 7 11 3 22 16 7 19 19 47 59 70 79
77 76 75 90 83 85 76 99 97 54 22 32 30 38 55 29 37 51 64 24 17 16 16 13 17 18 20 12 11 9 10 13 9 6 3 10 12 11 6 13 21 26 54 67 74
82 81 79 88 85 90 71 109 89 16 16 22 32 26 32 22 16 35 34 25 17 10 8 8 7 15 17 7 18 13 10 8 4 7 15 19 17 40 22 15 15 29 52 58 67
82 81 83 94 99 86 98 99 22 22 18 19 37 46 43 20 18 30 34 26 16 16 19 3 6 5 11 12 6 11 14 1 5 11 16 8 18 54 11 19 13 27 49 64 65
76 82 84 98 96 95 120 36 29 25 18 14 37 46 33 28 11 14 35 25 11 11 7 20 10 17 9 9 9 19 12 9 13 9 6 3 16 28 6 22 45 54 65 61 60
76 79 77 95 103 113 96 42 21 32 18 32 45 46 15 27 16 17 27 38 24 18 15 13 11 6 2 9 22 9 20 9 4 3 1 9 17 34 32 29 40 51 59 75 83
77 69 78 64 78 92 39 42 14 19 23 45 35 50 51 52 27 37 34 31 18 14 12 10 6 2 6 7 3 12 11 5 4 2 6 12 13 28 2 1 11 18 38 54 52
65 31 52 74 87 82 29 16 13 30 44 34 27 25 29 38 34 39 41 8 24 21 20 11 9 5 10 14 20 9 17 5 7 9 8 6 13 29 25 19 20 31 39 47 62
44 14 45 81 25 25 24 25 20 34 25 10 12 9 23 40 17 9 19 8 31 40 27 5 10 7 11 7 7 16 20 14 9 8 8 4 25 14 12 16 3 24 65 67 77
29 11 54 99 20 23 14 19 15 33 14 10 10 9 23 24 12 12 13 5 33 26 36 17 8 6 10 11 1 14 15 21 24 4 21 8 21 17 14 13 28 47 66 81 92
22 10 15 52 27 37 31 35 25 16 11 14 17 38 21 30 10 14 9 3 33 28 36 46 7 15 20 10 8 18 17 29 30 17 42 32 62 80 43 29 35 49 65 80 92
17 4 18 10 20 35 33 41 51 20 7 23 8 37 31 17 9 11 13 13 10 35 12 14 12 6 1 7 6 8 26 26 40 52 16 34 21 63 21 18 47 70 80 78 83
14 5 11 10 43 45 42 33 51 12 11 12 32 42 22 30 22 32 24 24 16 16 12 4 7 16 21 14 12 11 24 25 31 25 31 27 51 80 84 54 58 62 57 62 77
27 25 3 21 25 34 25 41 42 21 16 25 46 33 11 26 31 47 28 31 26 33 12 13 11 7 9 5 7 16 46 39 24 22 31 34 65 52 46 36 58 52 55 69 83
Wind_Direction_500mb
247 247 245 240 239 234 226 224 229 233 232 233 232 232 234 234 234 232 227 229 230 230 230 231 236 237 239 252 228 153 84 175 203 160 213 174 173 177 183 177 189 205 228 220 189
244 245 245 243 238 237 228 222 223 229 232 231 230 230 232 238 240 240 236 230 229 229 231 233 227 218 193 205 189 83 145 203 181 176 181 117 224 168 163 181 220 233 227 231 197
244 242 243 243 240 236 233 221 219 222 227 226 228 229 227 228 236 253 240 228 222 226 222 224 215 208 181 183 185 137 201 307 204 163 157 148 193 207 162 195 222 229 236 232 209
244 245 240 241 240 238 233 226 216 217 221 222 221 226 222 207 212 254 231 219 218 218 214 211 197 179 156 169 178 173 108 111 344 269 175 177 170 193 215 238 204 229 249 242 229
242 243 238 237 237 235 233 227 217 213 217 217 216 218 207 196 220 274 293 203 204 210 208 194 184 172 174 171 152 157 235 58 293 289 308 271 220 207 227 237 235 273 241 236 238
238 235 237 235 231 231 228 226 221 210 212 213 212 214 205 218 237 238 268 218 200 202 205 203 202 192 169 175 184 166 195 281 276 269 264 281 305 193 252 250 249 261 247 235 239
237 234 232 234 235 229 225 223 219 211 207 212 209 209 207 217 232 228 238 216 203 207 204 201 195 190 164 134 158 139 287 319 215 234 236 206 281 229 256 254 238 238 247 241 237
237 232 233 234 235 219 218 220 217 209 206 210 206 207 220 218 221 213 217 201 196 199 208 204 199 187 155 127 72 108 74 241 178 165 231 168 254 251 274 250 250 247 243 243 242
235 234 233 229 231 229 215 216 214 207 202 206 201 206 215 206 213 201 207 197 190 190 188 188 189 173 135 114 76 216 175 224 284 196 152 190 258 247 273 244 255 257 250 243 240
234 232 229 226 228 223 219 211 210 203 199 202 206 201 212 198 193 188 186 192 182 173 156 161 161 130 153 185 204 184 214 253 216 210 203 214 249 273 274 268 262 274 265 259 247
233 232 228 227 220 219 217 201 184 194 194 190 199 198 195 190 183 182 188 183 184 177 177 174 188 204 181 196 129 137 166 201 225 255 250 232 242 244 264 259 264 266 262 265 258
228 227 224 225 222 224 221 197 189 199 191 197 201 199 182 178 173 184 189 174 186 184 124 147 224 182 159 177 168 153 207 212 252 323 223 295 275 232 263 256 248 256 261 262 263
229 227 220 218 215 220 212 204 197 174 176 188 194 185 186 176 181 178 182 178 186 160 181 187 188 142 133 150 174 197 230 165 311 332 265 313 285 228 237 248 244 250 258 262 262
225 223 217 209 211 211 216 208 195 192 197 176 178 190 180 174 179 185 182 172 175 188 170 210 167 148 153 198 156 236 182 196 256 320 259 1 283 242 231 269 234 243 251 258 259
220 220 218 206 207 204 200 189 185 199 211 159 162 172 177 171 142 178 182 180 159 151 150 189 158 154 201 184 154 222 149 167 178 210 347 237 280 281 186 264 272 243 254 257 259
216 213 213 208 210 206 195 186 175 222 201 170 146 170 157 173 141 144 167 162 141 117 90 157 149 156 174 133 169 150 104 62 141 166 243 220 206 269 245 237 241 240 247 257 269
212 210 208 205 206 192 188 164 193 210 153 151 154 159 168 168 148 177 174 175 164 144 176 112 139 159 150 115 132 197 132 122 225 210 242 209 184 253 295 282 236 268 278 277 277
204 207 209 205 199 192 175 176 202 146 186 162 167 159 174 145 156 169 170 169 134 124 142 165 199 168 163 170 171 191 189 174 202 205 271 46 226 250 220 251 256 261 269 274 279
201 204 209 196 197 183 170 190 184 155 165 146 145 168 149 171 138 158 196 196 178 179 146 150 231 43 151 154 163 183 215 176 355 298 327 220 281 290 264 250 257 262 268 278 284
196 202 215 190 187 186 183 183 144 154 130 141 158 181 181 177 162 179 173 200 180 152 130 180 122 135 170 98 105 148 155 115 202 221 241 255 255 248 160 65 304 273 264 285 302
187 195 218 202 186 186 198 199 133 159 140 152 161 171 174 175 180 186 186 17 167 150 106 129 93 121 120 202 184 171 213 186 138 181 207 275 253 241 249 225 239 267 284 315 318
180 200 194 193 190 185 178 150 121 141 126 102 95 99 164 166 161 142 183 98 160 151 173 195 114 152 183 314 232 210 216 173 168 221 240 260 270 200 251 240 165 332 325 320 320
168 182 177 186 191 167 139 132 118 145 135 139 117 107 141 153 139 158 135 106 173 157 163 158 170 73 3 346 306 210 199 212 239 346 242 156 260 102 81 97 352 334 326 324 323
166 173 163 194 214 151 134 145 126 110 71 81 108 119 112 157 39 150 124 104 171 166 166 162 146 187 206 185 151 199 194 204 198 211 241 226 251 274 259 296 334 338 322 310 304
193 207 158 170 163 143 137 154 142 139 87 133 86 157 144 151 105 143 128 115 122 174 131 148 186 137 97 151 135 179 203 202 210 228 223 243 264 268 278 326 306 293 287 287 289
155 121 117 115 142 152 141 163 155 104 147 157 151 159 144 160 167 155 151 163 165 163 145 129 144 168 210 215 196 225 224 213 226 238 258 279 269 260 286 284 273 274 273 276 284
208 185 184 137 147 150 164 160 156 126 28 135 138 136 112 170 159 167 156 132 151 164 136 139 133 114 225 335 105 297 233 217 208 201 211 228 244 269 280 272 268 289 307 300 293
Wind_Speed_850mb
73 71 64 57 53 52 59 61 53 52 44 41 38 35 33 33 37 43 48 44 48 38 18 24 25 19 14 5 2 6 8 6 9 11 6 9 11 10 9 8 15 16 9 5 32
74 75 73 66 58 54 56 63 58 52 51 42 39 36 33 31 34 46 46 43 42 45 40 28 22 21 9 4 3 4 7 21 17 16 7 1 8 21 13 11 15 20 24 15 26
67 76 78 73 67 58 56 62 64 56 56 47 41 38 33 29 22 44 45 50 47 39 40 33 22 21 14 9 6 8 7 7 14 25 17 10 4 7 15 6 23 21 27 24 29
76 65 76 79 75 68 58 59 67 61 54 52 44 40 37 29 13 7 28 46 46 43 37 33 28 21 12 11 11 5 2 3 7 6 15 16 14 7 17 12 9 17 23 30 36
73 67 68 84 79 78 66 59 67 66 55 55 50 46 39 37 32 10 7 38 53 47 45 40 37 22 14 16 15 9 1 3 7 9 12 7 22 16 20 19 17 20 22 25 40
73 66 71 76 95 82 73 63 65 72 59 57 53 51 52 31 37 36 24 24 55 51 47 46 25 22 14 13 16 15 7 7 10 11 12 6 12 12 36 44 44 41 32 28 34
74 72 70 63 63 89 77 67 63 72 67 59 56 55 54 52 24 49 25 26 47 45 47 46 25 27 15 8 12 9 3 3 12 11 11 2 11 18 51 35 37 43 37 35 36
81 74 68 70 65 101 79 70 63 69 72 61 57 58 29 57 45 26 34 35 41 40 37 41 41 26 9 22 8 8 3 5 2 17 11 18 22 20 34 42 53 51 52 52 45
84 77 76 63 61 77 80 72 65 67 72 59 56 56 23 32 55 38 33 40 41 38 31 34 39 17 18 10 5 4 6 16 8 27 9 16 6 16 19 24 46 55 55 55 54
78 88 79 72 55 64 78 76 67 63 64 51 53 35 30 41 50 46 37 38 37 36 33 23 12 8 6 12 13 11 12 9 10 6 9 9 12 24 50 37 41 49 56 53 60
78 81 85 87 74 53 94 82 62 39 75 76 50 38 41 39 49 49 47 46 43 37 14 15 8 28 18 17 7 9 8 9 4 11 7 13 19 26 51 38 46 54 58 52 67
84 79 81 86 89 82 81 96 98 84 56 65 34 72 21 54 31 51 56 35 36 16 14 9 25 11 13 11 10 5 6 7 7 5 1 11 27 18 45 38 52 61 61 68 73
75 76 77 78 74 74 111 113 108 61 24 37 53 63 50 59 39 61 63 36 13 18 25 17 5 22 12 9 11 7 10 6 1 12 5 11 34 18 23 59 54 69 76 78 79
75 78 78 83 73 82 101 104 99 70 18 21 34 31 50 41 16 68 70 40 12 26 15 15 10 16 8 13 13 17 14 11 8 7 11 3 22 16 7 19 19 47 59 70 79
77 76 75 90 83 85 76 99 97 54 22 32 30 38 55 29 37 51 64 24 17 16 16 13 17 18 20 12 11 9 10 13 9 6 3 10 12 11 6 13 21 26 54 67 74
82 81 79 88 85 90 71 109 89 16 16 22 32 26 32 22 16 35 34 25 17 10 8 8 7 15 17 7 18 13 10 8 4 7 15 19 17 40 22 15 15 29 52 58 67
82 81 83 94 99 86 98 99 22 22 18 19 37 46 43 20 18 30 34 26 16 16 19 3 6 5 11 12 6 11 14 1 5 11 16 8 18 54 11 19 13 27 49 64 65
76 82 84 98 96 95 120 36 29 25 18 14 37 46 33 28 11 14 35 25 11 11 7 20 10 17 9 9 9 19 12 9 13 9 6 3 16 28 6 22 45 54 65 61 60
76 79 77 95 103 113 96 42 21 32 18 32 45 46 15 27 16 17 27 38 24 18 15 13 11 6 2 9 22 9 20 9 4 3 1 9 17 34 32 29 40 51 59 75 83
77 69 78 64 78 92 39 42 14 19 23 45 35 50 51 52 27 37 34 31 18 14 12 10 6 2 6 7 3 12 11 5 4 2 6 12 13 28 2 1 11 18 38 54 52
65 31 52 74 87 82 29 16 13 30 44 34 27 25 29 38 34 39 41 8 24 21 20 11 9 5 10 14 20 9 17 5 7 9 8 6 13 29 25 19 20 31 39 47 62
44 14 45 81 25 25 24 25 20 34 25 10 12 9 23 40 17 9 19 8 31 40 27 5 10 7 11 7 7 16 20 14 9 8 8 4 25 14 12 16 3 24 65 67 77
29 11 54 99 20 23 14 19 15 33 14 10 10 9 23 24 12 12 13 5 33 26 36 17 8 6 10 11 1 14 15 21 24 4 21 8 21 17 14 13 28 47 66 81 92
22 10 15 52 27 37 31 35 25 16 11 14 17 38 21 30 10 14 9 3 33 28 36 46 7 15 20 10 8 18 17 29 30 17 42 32 62 80 43 29 35 49 65 80 92
17 4 18 10 20 35 33 41 51 20 7 23 8 37 31 17 9 11 13 13 10 35 12 14 12 6 1 7 6 8 26 26 40 52 16 34 21 63 21 18 47 70 80 78 83
14 5 11 10 43 45 42 33 51 12 11 12 32 42 22 30 22 32 24 24 16 16 12 4 7 16 21 14 12 11 24 25 31 25 31 27 51 80 84 54 58 62 57 62 77
27 25 3 21 25 34 25 41 42 21 16 25 46 33 11 26 31 47 28 31 26 33 12 13 11 7 9 5 7 16 46 39 24 22 31 34 65 52 46 36 58 52 55 69 83
Wind_Direction_850mb
247 247 245 240 239 234 226 224 229 233 232 233 232 232 234 234 234 232 227 229 230 230 230 231 236 237 239 252 228 153 84 175 203 160 213 174 173 177 183 177 189 205 228 220 189
244 245 245 243 238 237 228 222 223 229 232 231 230 230 232 238 240 240 236 230 229 229 231 233 227 218 193 205 189 83 145 203 181 176 181 117 224 168 163 181 220 233 227 231 197
244 242 243 243 240 236 233 221 219 222 227 226 228 229 227 228 236 253 240 228 222 226 222 224 215 208 181 183 185 137 201 307 204 163 157 148 193 207 162 195 222 229 236 232 209
244 245 240 241 240 238 233 226 216 217 221 222 221 226 222 207 212 254 231 219 218 218 214 211 197 179 156 169 178 173 108 111 344 269 175 177 170 193 215 238 204 229 249 242 229
242 243 238 237 237 235 233 227 217 213 217 217 216 218 207 196 220 274 293 203 204 210 208 194 184 172 174 171 152 157 235 58 293 289 308 271 220 207 227 237 235 273 241 236 238
238 235 237 235 231 231 228 226 221 210 212 213 212 214 205 218 237 238 268 218 200 202 205 203 202 192 169 175 184 166 195 281 276 269 264 281 305 193 252 250 249 261 247 235 239
237 234 232 234 235 229 225 223 219 211 207 212 209 209 207 217 232 228 238 216 203 207 204 201 195 190 164 134 158 139 287 319 215 234 236 206 281 229 256 254 238 238 247 241 237
237 232 233 234 235 219 218 220 217 209 206 210 206 207 220 218 221 213 217 201 196 199 208 204 199 187 155 127 72 108 74 241 178 165 231 168 254 251 274 250 250 247 243 243 242
235 234 233 229 231 229 215 216 214 207 202 206 201 206 215 206 213 201 207 197 190 190 188 188 189 173 135 114 76 216 175 224 284 196 152 190 258 247 273 244 255 257 250 243 240
234 232 229 226 228 223 219 211 210 203 199 202 206 201 212 198 193 188 186 192 182 173 156 161 161 130 153 185 204 184 214 253 216 210 203 214 249 273 274 268 262 274 265 259 247
233 232 228 227 220 219 217 201 184 194 194 190 199 198 195 190 183 182 188 183 184 177 177 174 188 204 181 196 129 137 166 201 225 255 250 232 242 244 264 259 264 266 262 265 258
228 227 224 225 222 224 221 197 189 199 191 197 201 199 182 178 173 184 189 174 186 184 124 147 224 182 159 177 168 153 207 212 252 323 223 295 275 232 263 256 248 256 261 262 263
229 227 220 218 215 220 212 204 197 174 176 188 194 185 186 176 181 178 182 178 186 160 181 187 188 142 133 150 174 197 230 165 311 332 265 313 285 228 237 248 244 250 258 262 262
225 223 217 209 211 211 216 208 195 192 197 176 178 190 180 174 179 185 182 172 175 188 170 210 167 148 153 198 156 236 182 196 256 320 259 1 283 242 231 269 234 243 251 258 259
220 220 218 206 207 204 200 189 185 199 211 159 162 172 177 171 142 178 182 180 159 151 150 189 158 154 201 184 154 222 149 167 178 210 347 237 280 281 186 264 272 243 254 257 259
216 213 213 208 210 206 195 186 175 222 201 170 146 170 157 173 141 144 167 162 141 117 90 157 149 156 174 133 169 150 104 62 141 166 243 220 206 269 245 237 241 240 247 257 269
212 210 208 205 206 192 188 164 193 210 153 151 154 159 168 168 148 177 174 175 164 144 176 112 139 159 150 115 132 197 132 122 225 210 242 209 184 253 295 282 236 268 278 277 277
204 207 209 205 199 192 175 176 202 146 186 162 167 159 174 145 156 169 170 169 134 124 142 165 199 168 163 170 171 191 189 174 202 205 271 46 226 250 220 251 256 261 269 274 279
201 204 209 196 197 183 170 190 184 155 165 146 145 168 149 171 138 158 196 196 178 179 146 150 231 43 151 154 163 183 215 176 355 298 327 220 281 290 264 250 257 262 268 278 284
196 202 215 190 187 186 183 183 144 154 130 141 158 181 181 177 162 179 173 200 180 152 130 180 122 135 170 98 105 148 155 115 202 221 241 255 255 248 160 65 304 273 264 285 302
187 195 218 202 186 186 198 199 133 159 140 152 161 171 174 175 180 186 186 17 167 150 106 129 93 121 120 202 184 171 213 186 138 181 207 275 253 241 249 225 239 267 284 315 318
180 200 194 193 190 185 178 150 121 141 126 102 95 99 164 166 161 142 183 98 160 151 173 195 114 152 183 314 232 210 216 173 168 221 240 260 270 200 251 240 165 332 325 320 320
168 182 177 186 191 167 139 132 118 145 135 139 117 107 141 153 139 158 135 106 173 157 163 158 170 73 3 346 306 210 199 212 239 346 242 156 260 102 81 97 352 334 326 324 323
166 173 163 194 214 151 134 145 126 110 71 81 108 119 112 157 39 150 124 104 171 166 166 162 146 187 206 185 151 199 194 204 198 211 241 226 251 274 259 296 334 338 322 310 304
193 207 158 170 163 143 137 154 142 139 87 133 86 157 144 151 105 143 128 115 122 174 131 148 186 137 97 151 135 179 203 202 210 228 223 243 264 268 278 326 306 293 287 287 289
155 121 117 115 142 152 141 163 155 104 147 157 151 159 144 160 167 155 151 163 165 163 145 129 144 168 210 215 196 225 224 213 226 238 258 279 269 260 286 284 273 274 273 276 284
208 185 184 137 147 150 164 160 156 126 28 135 138 136 112 170 159 167 156 132 151 164 136 139 133 114 225 335 105 297 233 217 208 201 211 228 244 269 280 272 268 289 307 300 293